Regional Weather Roundup
Issued by NWS

Home | Current Version | Previous Version | Graphics & Text | Print | Product List | Glossary On
Versions: 1 2 3 4 5 6 7 8 9 10 11 12 13 14 15 16 17 18 19 20 21 22 23 24 25 26 27 28 29 30 31 32 33 34 35 36 37 38 39 40 41 42 43 44 45 46 47 48 49 50
000
ASUS45 KBOU 100710
RWRCO

WEATHER ROUNDUP FOR COLORADO
NATIONAL WEATHER SERVICE DENVER/BOULDER CO
100 AM MDT THU JUL 10 2014

NOTE: "FAIR" INDICATES FEW OR NO CLOUDS BELOW 12000 FEET WITH NO
SIGNIFICANT WEATHER AND/OR OBSTRUCTIONS TO VISIBILITY.

COZ001>005-013-030-031-100800-
...NORTHWEST COLORADO...

CITY           SKY/WX    TMP DP  RH WIND       PRES   REMARKS
CRAIG          PTCLDY    55  46  71 CALM      30.16R
HAYDEN         PTCLDY    59  41  51 SE9       30.18F
MEEKER         PTCLDY    56  51  84 NE3       30.19S
MOUNT WERNER   PTCLDY    61  27  27 W9        30.50F
STEAMBOAT SPGS PTCLDY    56  43  60 S3        30.21S
WALDEN         MOCLDY    50  43  76 SE7       30.29F
$$

COZ006>008-011-100800-
...WEST CENTRAL VALLEYS...

CITY           SKY/WX    TMP DP  RH WIND       PRES   REMARKS
GRAND JUNCTION CLOUDY    71  53  52 W3        30.08F
MONTROSE       MOCLDY    71  45  39 E5        30.17S
EAGLE          CLEAR     61  43  51 CALM      30.23R
RIFLE          PTCLDY    67  43  41 NE3       30.13R
DELTA          MOCLDY    72  45  37 NE5       30.12S
NUCLA          MOCLDY    64  50  59 S3        30.23R
$$

COZ017>023-064>068-100800-
...SOUTHWEST COLORADO...

CITY           SKY/WX    TMP DP  RH WIND       PRES   REMARKS
DURANGO        CLOUDY    61  53  75 NE6       30.29S
CORTEZ         CLEAR     71  51  49 VRB5      30.20S
PAGOSA SPRINGS CLOUDY    56  54  92 CALM      30.36F
TELLURIDE      MOCLDY    52  46  82 SE3       30.41F
WOLF CREEK PAS NOT AVBL
$$

COZ009-010-012-014-032>034-037-058>063-100800-
...CENTRAL COLORADO...

CITY           SKY/WX    TMP DP  RH WIND       PRES   REMARKS
ASPEN          CLEAR     59  40  49 SE7       30.29F
BUENA VISTA    PTCLDY    59  41  51 SW5       30.32F
COPPER MTN     PTCLDY    54  32  43 S21       30.61F
BERTHOUD PASS  FAIR      45  32  61 W12       30.66R
COTTONWOOD PAS PTCLDY    63  34  34 W10G17    30.45F
GUNNISON       NOT AVBL
KREMMLING      MOCLDY    54  45  71 CALM      30.29S
LEADVILLE      PTCLDY    46  35  65 E6        30.44F
MONARCH PASS   MOCLDY    46  37  71 SW15      30.72S
SALIDA         PTCLDY   N/A N/A N/A S3        30.35S
SUNLIGHT       PTCLDY    55  36  47 SW3       30.52F
WILKERSON PASS PTCLDY    50  37  62 SW8       30.57S
$$

COZ069>075-100800-
...SAN LUIS VALLEY/SANGRE DE CRISTO MOUNTAINS...

CITY           SKY/WX    TMP DP  RH WIND       PRES   REMARKS
ALAMOSA        MOCLDY    56  46  69 SE7       30.31F
LA VETA PASS   PTCLDY    52  41  66 SW13G20   30.47F
SAGUACHE       NOT AVBL
$$

COZ035-036-038>040-100800-
...NORTHERN COLORADO FRONT RANGE...

CITY           SKY/WX    TMP DP  RH WIND       PRES   REMARKS
DENVER INTL AP MOCLDY    70  45  40 S12       30.04R
DMNS CITY PARK   N/A     70  46  41 S3        30.04R
AURORA         MOCLDY    71  45  39 S9        30.07S
FRONT RANGE AP NOT AVBL
ERIE MUNI ARPT MOCLDY    64  50  61 CALM      30.03R
BOULDER MUN AP MOCLDY    64  45  48 N3        30.03S
CENTENNIAL     MOCLDY    70  42  36 S6        30.08S
BROOMFIELD     MOCLDY    72  45  37 CALM      30.07S
FORT COLLINS   PTCLDY    64  55  72 CALM      30.02R
LONGMONT       PTCLDY    66  50  56 S5        30.04R
$$

COZ041-046-047-076>085-087-088-100800-
...PIKES PEAK/PALMER DIVIDE AND SOUTHERN FOOTHILLS...

CITY           SKY/WX    TMP DP  RH WIND       PRES   REMARKS
COLO. SPRINGS  CLOUDY    67  42  40 SE5       30.15R
A. F. ACADEMY  MOCLDY    65  40  39 VRB3      30.16S
ELLICOTT       NOT AVBL
FALCON         MOCLDY    66  40  38 SE5       30.21R
FORT CARSON    MOCLDY    68  44  42 S7        30.11R
LIMON          PTCLDY    62  53  72 SE10      30.10F
MONUMENT HILL  MOCLDY    61  36  39 S12       30.19S
TRINIDAD       PTCLDY    68  48  48 W8        30.13F
$$

COZ042>045-048>051-090-091-100800-
...NORTHEAST COLORADO...

CITY           SKY/WX    TMP DP  RH WIND       PRES   REMARKS
GREELEY ARPT   PTCLDY    61  50  67 N7        30.00S
AKRON          CLEAR     67  55  65 S18G28    30.00F
BURLINGTON     PTCLDY    68  51  54 S16       29.98F
WRAY           CLEAR     71  51  49 SW12      29.94F
STERLING       CLEAR     61  59  94 CALM      29.95F
HOLYOKE        CLEAR     61  55  82 E8        29.96S
FORT MORGAN    CLEAR     60  52  73 S6        30.00S
$$

COZ086-089-092>099-100800-
...SOUTHEAST COLORADO...

CITY           SKY/WX    TMP DP  RH WIND       PRES   REMARKS
PUEBLO         MOCLDY    72  50  45 N9        30.02F
LA JUNTA       CLEAR     71  53  52 E15       30.04F
LAMAR          MOCLDY    71  50  47 SE9       29.99F
SPRINGFIELD      N/A     69  52  54 VRB3      30.06F
$$


USA.gov is the U.S. government's official web portal to all federal, state and local government web resources and services.